Previsão horária em Abakanovo

Hoje, 14 Abril, Quarta-feira

Tempo Temperatura Precipitação Vento Pressão Humidade
00:00 +11°C° 0.6 mm 1 m/s 740 mmHg 97%
01:00 +11°C° 0.6 mm 1 m/s 739 mmHg 97%
02:00 +11°C° 0 mm 1 m/s 739 mmHg 98%
03:00 +10°C° 0.1 mm 2 m/s 739 mmHg 98%
04:00 +9°C° 0.1 mm 2 m/s 739 mmHg 98%
05:00 +9°C° 0.1 mm 2 m/s 739 mmHg 98%
06:00 +10°C° 0 mm 2 m/s 739 mmHg 96%
07:00 +10°C° 0 mm 2 m/s 739 mmHg 95%
08:00 +10°C° 0 mm 2 m/s 739 mmHg 93%
09:00 +10°C° 0 mm 2 m/s 740 mmHg 90%
10:00 +10°C° 0 mm 2 m/s 740 mmHg 88%
11:00 +10°C° 0 mm 3 m/s 740 mmHg 85%
12:00 +9°C° 0 mm 3 m/s 740 mmHg 86%
13:00 +8°C° 0 mm 3 m/s 741 mmHg 87%
14:00 +7°C° 0 mm 3 m/s 741 mmHg 88%
15:00 +7°C° 0 mm 3 m/s 741 mmHg 89%
16:00 +5°C° 0 mm 3 m/s 741 mmHg 90%
17:00 +5°C° 0 mm 3 m/s 741 mmHg 90%
18:00 +4°C° 0 mm 3 m/s 741 mmHg 92%
19:00 +4°C° 0 mm 3 m/s 742 mmHg 93%
20:00 +3°C° 0 mm 3 m/s 742 mmHg 95%
21:00 +3°C° 0.4 mm 3 m/s 742 mmHg 95%
22:00 +3°C° 0.4 mm 3 m/s 742 mmHg 95%
23:00 +3°C° 0.4 mm 3 m/s 742 mmHg 95%

Amanhã, 15 Abril, Quinta-feira

Tempo Temperatura Precipitação Vento Pressão Humidade
00:00 +3°C° 0.9 mm 3 m/s 742 mmHg 95%
01:00 +3°C° 0.9 mm 3 m/s 742 mmHg 95%
02:00 +3°C° 0.9 mm 4 m/s 742 mmHg 95%
03:00 +3°C° 0.1 mm 4 m/s 742 mmHg 94%
04:00 +3°C° 0.1 mm 4 m/s 742 mmHg 94%
05:00 +3°C° 0.1 mm 4 m/s 742 mmHg 93%
06:00 +3°C° 0 mm 4 m/s 742 mmHg 93%
07:00 +3°C° 0 mm 4 m/s 742 mmHg 92%
08:00 +4°C° 0 mm 4 m/s 742 mmHg 92%
09:00 +4°C° 0.1 mm 4 m/s 742 mmHg 91%
10:00 +4°C° 0.1 mm 4 m/s 742 mmHg 91%
11:00 +4°C° 0.1 mm 4 m/s 742 mmHg 90%
12:00 +4°C° 0.1 mm 4 m/s 742 mmHg 90%
13:00 +5°C° 0.1 mm 5 m/s 742 mmHg 89%
14:00 +5°C° 0.1 mm 5 m/s 742 mmHg 88%
15:00 +5°C° 0.1 mm 5 m/s 742 mmHg 89%
16:00 +3°C° 0.1 mm 5 m/s 742 mmHg 89%
17:00 +3°C° 0.1 mm 5 m/s 742 mmHg 90%
18:00 +3°C° 0.4 mm 5 m/s 742 mmHg 89%
19:00 +3°C° 0.4 mm 5 m/s 742 mmHg 89%
20:00 +3°C° 0.4 mm 5 m/s 742 mmHg 89%
21:00 +3°C° 0 mm 5 m/s 742 mmHg 89%
22:00 +3°C° 0 mm 5 m/s 742 mmHg 89%
23:00 +3°C° 0 mm 5 m/s 742 mmHg 90%

Depois de amanhã, 16 Abril, Sexta-feira

Tempo Temperatura Precipitação Vento Pressão Humidade
00:00 +3°C° 0 mm 5 m/s 742 mmHg 90%
01:00 +3°C° 0 mm 5 m/s 742 mmHg 90%
02:00 +3°C° 0 mm 5 m/s 742 mmHg 90%
03:00 +2°C° 0 mm 5 m/s 742 mmHg 90%
04:00 +2°C° 0 mm 5 m/s 742 mmHg 90%
05:00 +2°C° 0 mm 5 m/s 742 mmHg 90%
06:00 +3°C° 0.1 mm 5 m/s 742 mmHg 89%
07:00 +3°C° 0.1 mm 5 m/s 743 mmHg 88%
08:00 +3°C° 0.1 mm 5 m/s 743 mmHg 87%
09:00 +5°C° 0 mm 5 m/s 743 mmHg 84%
10:00 +6°C° 0 mm 5 m/s 743 mmHg 81%
11:00 +7°C° 0 mm 5 m/s 743 mmHg 78%
12:00 +9°C° 0 mm 5 m/s 743 mmHg 75%
13:00 +10°C° 0 mm 5 m/s 744 mmHg 71%
14:00 +12°C° 0 mm 5 m/s 744 mmHg 67%
15:00 +12°C° 0 mm 5 m/s 744 mmHg 68%
16:00 +10°C° 0 mm 5 m/s 744 mmHg 69%
17:00 +10°C° 0 mm 5 m/s 744 mmHg 70%
18:00 +9°C° 0 mm 5 m/s 744 mmHg 72%
19:00 +8°C° 0 mm 5 m/s 744 mmHg 74%
20:00 +7°C° 0 mm 5 m/s 744 mmHg 76%
21:00 +7°C° 0 mm 5 m/s 744 mmHg 76%
22:00 +6°C° 0 mm 4 m/s 745 mmHg 75%
23:00 +6°C° 0 mm 4 m/s 745 mmHg 75%

17 Abril, Sábado

Tempo Temperatura Precipitação Vento Pressão Humidade
00:00 +5°C° 0 mm 4 m/s 745 mmHg 75%
01:00 +4°C° 0 mm 4 m/s 745 mmHg 75%
02:00 +4°C° 0 mm 4 m/s 745 mmHg 76%
03:00 +3°C° 0 mm 4 m/s 745 mmHg 77%
04:00 +3°C° 0 mm 4 m/s 745 mmHg 79%
05:00 +3°C° 0 mm 4 m/s 746 mmHg 80%
06:00 +4°C° 0 mm 4 m/s 746 mmHg 77%
07:00 +5°C° 0 mm 4 m/s 746 mmHg 73%
08:00 +6°C° 0 mm 4 m/s 746 mmHg 70%
09:00 +7°C° 0 mm 4 m/s 746 mmHg 66%
10:00 +10°C° 0 mm 4 m/s 746 mmHg 62%
11:00 +11°C° 0 mm 4 m/s 747 mmHg 59%
12:00 +12°C° 0 mm 4 m/s 747 mmHg 57%
13:00 +12°C° 0 mm 4 m/s 747 mmHg 56%
14:00 +13°C° 0 mm 4 m/s 747 mmHg 55%
15:00 +13°C° 0 mm 4 m/s 747 mmHg 55%
16:00 +13°C° 0 mm 4 m/s 747 mmHg 56%
17:00 +13°C° 0 mm 4 m/s 747 mmHg 56%
18:00 +11°C° 0 mm 3 m/s 747 mmHg 60%
19:00 +9°C° 0 mm 3 m/s 747 mmHg 63%
20:00 +7°C° 0 mm 3 m/s 747 mmHg 67%
21:00 +7°C° 0 mm 3 m/s 748 mmHg 67%
22:00 +5°C° 0 mm 3 m/s 748 mmHg 67%
23:00 +5°C° 0 mm 3 m/s 748 mmHg 67%

18 Abril, Domingo

Tempo Temperatura Precipitação Vento Pressão Humidade
00:00 +4°C° 0 mm 3 m/s 748 mmHg 70%
01:00 +3°C° 0 mm 3 m/s 748 mmHg 73%
02:00 +4°C° 0 mm 2 m/s 748 mmHg 77%
03:00 +3°C° 0 mm 2 m/s 749 mmHg 78%
04:00 +3°C° 0 mm 2 m/s 749 mmHg 79%
05:00 +2°C° 0 mm 2 m/s 749 mmHg 81%
06:00 +3°C° 0 mm 3 m/s 749 mmHg 72%
07:00 +5°C° 0 mm 3 m/s 749 mmHg 64%
08:00 +7°C° 0 mm 4 m/s 749 mmHg 56%
09:00 +8°C° 0 mm 4 m/s 749 mmHg 50%
10:00 +10°C° 0 mm 4 m/s 749 mmHg 45%
11:00 +12°C° 0 mm 4 m/s 749 mmHg 39%
12:00 +12°C° 0 mm 4 m/s 749 mmHg 38%
13:00 +13°C° 0 mm 3 m/s 749 mmHg 36%
14:00 +14°C° 0 mm 3 m/s 749 mmHg 35%
15:00 +13°C° 0 mm 3 m/s 749 mmHg 37%
16:00 +13°C° 0 mm 3 m/s 749 mmHg 40%
17:00 +12°C° 0 mm 3 m/s 749 mmHg 43%
18:00 +11°C° 0 mm 3 m/s 749 mmHg 50%
19:00 +9°C° 0 mm 2 m/s 749 mmHg 57%
20:00 +7°C° 0 mm 2 m/s 749 mmHg 65%
21:00 +6°C° 0 mm 2 m/s 750 mmHg 67%
22:00 +5°C° 0 mm 2 m/s 750 mmHg 70%
23:00 +5°C° 0 mm 2 m/s 750 mmHg 73%

19 Abril, Segunda-feira

Tempo Temperatura Precipitação Vento Pressão Humidade
00:00 +4°C° 0 mm 2 m/s 750 mmHg 74%
01:00 +4°C° 0 mm 2 m/s 750 mmHg 76%
02:00 +3°C° 0 mm 2 m/s 750 mmHg 78%
03:00 +3°C° 0 mm 2 m/s 750 mmHg 79%
04:00 +3°C° 0 mm 2 m/s 750 mmHg 80%
05:00 +3°C° 0 mm 2 m/s 750 mmHg 81%
06:00 +5°C° 0 mm 2 m/s 751 mmHg 73%
07:00 +6°C° 0 mm 2 m/s 751 mmHg 65%
08:00 +8°C° 0 mm 3 m/s 751 mmHg 57%
09:00 +10°C° 0 mm 3 m/s 751 mmHg 51%
10:00 +11°C° 0 mm 3 m/s 751 mmHg 46%
11:00 +13°C° 0 mm 3 m/s 751 mmHg 40%
12:00 +13°C° 0 mm 4 m/s 750 mmHg 41%
13:00 +13°C° 0 mm 4 m/s 750 mmHg 41%
14:00 +13°C° 0 mm 4 m/s 750 mmHg 42%
15:00 +12°C° 0 mm 4 m/s 750 mmHg 47%
16:00 +12°C° 0 mm 4 m/s 750 mmHg 52%
17:00 +11°C° 0 mm 4 m/s 750 mmHg 57%
18:00 +10°C° 0 mm 3 m/s 750 mmHg 62%
19:00 +8°C° 0 mm 3 m/s 750 mmHg 67%
20:00 +7°C° 0 mm 2 m/s 750 mmHg 72%
21:00 +7°C° 0 mm 2 m/s 750 mmHg 73%
22:00 +7°C° 0 mm 2 m/s 750 mmHg 75%
23:00 +6°C° 0 mm 2 m/s 750 mmHg 76%
Mostrar mais

Necessitamos do seu Consentimento

A Meteoprog e os seus Fornecedores de Serviços podem armazenar e aceder a dados pessoais como cookies, identificadores do dispositivo ou outras tecnologias semelhantes existentes no seu dispositivo e processar estes dados para personalizar conteúdos e anúncios, assim como funcionalidades nas redes sociais e análise de tráfego.

  • Armazenar e/ou aceder a informações no seu dispositivo

    Os cookies, identificadores do dispositivo ou outras informações podem ser armazenados ou acedidos no seu dispositivo, para os fins acima indicados.

  • Anúncios e conteúdos personalizados, medição de anúncios e conteúdos, dados sobre o público-alvo e desenvolvimento de produtos

    Os anúncios e os conteúdos podem ser personalizados com base num perfil. Podem ser adicionados dados adicionais para uma maior personalização dos anúncios e dos conteúdos. A eficácia dos anúncios e dos conteúdos pode ser medida. Podem ser obtidas informações sobre o público que visualizou os anúncios e os conteúdos. Estes dados podem ser usados para desenvolver ou melhorar sistemas, softwares ou a experiência do utilizador.

Ao clicar em "Eu concordo”, permitirá o uso de cookies, identificadores do dispositivo e web beacons mencionados ou outras tecnologias semelhantes. As configurações do navegador do seu dispositivo podem ser alteradas.

Para certos fins, podem ser invocados interesses legítimos ao invés de consentimento. Pode ler mais informação sobre este assunto na nossa Política de Privacidade e Cookies.